Weather History for Crestview, FL

Change the Weather History Date:

Monday, July 1, 2013

  Actual Average Record
Temperature  
Mean Temperature 79 °F -  
Max Temperature 91 °F - - ()
Min Temperature 68 °F - - ()
Cooling Degree Days 14    
Growing Degree Days 29 (Base 50)    
Moisture  
Dew Point 69 °F    
Average Humidity 83    
Maximum Humidity 100    
Minimum Humidity 38    
Precipitation  
Precipitation 0.00 in - - ()
Sea Level Pressure  
Sea Level Pressure 29.81 in    
Wind  
Wind Speed 3 mph (South)    
Max Wind Speed 12 mph    
Max Gust Speed -    
Visibility 6 miles    
Events Fog    
T = Trace of Precipitation, MM = Missing Value Source: NWS Daily Summary

Daily Weather History Graph

Daily Weather History Graph

Search for Another Location

Airport:

Trip Planner

Search our weather history database for the weather conditions in past years. The results will help you decide how hot, cold, wet, or windy it might be!

Date:

Astronomy

Jul. 01, 2013 Rise Set
Actual Time 5:47 AM CDT 7:52 PM CDT
Civil Twilight 5:19 AM CDT 8:20 PM CDT
Nautical Twilight 4:45 AM CDT 8:53 PM CDT
Astronomical Twilight 4:09 AM CDT 9:29 PM CDT
Moon 1:01 AM CDT 2:20 PM CDT
Length of Visible Light 15h 00m
Length of Day
14h 05m
Waning Crescent, 35% of the Moon is Illuminated
Jul 1
Waning Crescent
Jul 8
New
Jul 15
First Quarter
Jul 22
Full
Jul 29
Last Quarter

Hourly Weather History & Observations

Time (CDT) Temp. Heat Index Dew Point Humidity Pressure Visibility Wind Dir Wind Speed Gust Speed Precip Events Conditions
12:58 AM 69.6 °F - 69.1 °F 98% 29.78 in 10.0 mi SSE 2.3 mph - N/A   Clear
1:58 AM 69.4 °F - 68.7 °F 98% 29.78 in 10.0 mi Calm Calm - N/A   Clear
2:58 AM 70.7 °F - 70.3 °F 99% 29.78 in 5.0 mi South 2.3 mph - N/A   Clear
3:08 AM 69.8 °F - 69.8 °F 100% 29.78 in 6.0 mi West 1.2 mph - N/A   Partly Cloudy
3:18 AM 69.8 °F - 68.0 °F 94% 29.78 in 8.0 mi Calm Calm - N/A   Mostly Cloudy
3:23 AM 68.0 °F - 68.0 °F 100% 29.78 in 2.5 mi NNE 3.5 mph - N/A   Mostly Cloudy
3:28 AM 69.8 °F - 68.0 °F 94% 29.78 in 1.0 mi North 3.5 mph - N/A   Mist
3:33 AM 69.8 °F - 68.0 °F 94% 29.78 in 0.5 mi North 2.3 mph - N/A Fog Fog
3:43 AM 69.8 °F - 69.8 °F 100% 29.78 in 0.2 mi NNE 1.2 mph - N/A Fog Fog
3:48 AM 69.8 °F - 69.8 °F 100% 29.78 in 0.5 mi NE 2.3 mph - N/A Fog Fog
3:58 AM 69.8 °F - 68.0 °F 94% 29.78 in 0.2 mi ENE 2.3 mph - N/A Fog Fog
4:13 AM 69.8 °F - 69.8 °F 100% 29.79 in 0.5 mi Calm Calm - N/A Fog Fog
4:23 AM 69.8 °F - 69.8 °F 100% 29.79 in 0.8 mi Calm Calm - N/A   Scattered Clouds
4:28 AM 69.8 °F - 69.8 °F 100% 29.79 in 1.5 mi Calm Calm - N/A   Partly Cloudy
4:33 AM 69.8 °F - 68.0 °F 94% 29.79 in 3.0 mi ENE 1.2 mph - N/A   Partly Cloudy
4:58 AM 69.3 °F - 68.9 °F 99% 29.81 in 9.0 mi Calm Calm - N/A   Scattered Clouds
5:58 AM 70.2 °F - 69.8 °F 99% 29.81 in 10.0 mi Calm Calm - N/A   Partly Cloudy
6:08 AM 69.8 °F - 69.8 °F 100% 29.79 in 1.0 mi SSE 2.3 mph - N/A   Clear
6:13 AM 69.8 °F - 69.8 °F 100% 29.80 in 0.5 mi SSE 1.2 mph - N/A Fog Fog
6:18 AM 69.8 °F - 69.8 °F 100% 29.80 in 0.5 mi Calm Calm - N/A Fog Fog
6:23 AM 69.8 °F - 69.8 °F 100% 29.80 in 0.8 mi Calm Calm - N/A   Clear
6:28 AM 71.6 °F - 69.8 °F 94% 29.80 in 1.8 mi South 1.2 mph - N/A   Clear
6:33 AM 71.6 °F - 69.8 °F 94% 29.81 in 5.0 mi SSW 2.3 mph - N/A   Clear
6:58 AM 73.8 °F - 73.6 °F 99% 29.82 in 10.0 mi Calm Calm - N/A   Clear
7:58 AM 76.8 °F - 76.5 °F 99% 29.83 in 10.0 mi Calm Calm - N/A   Clear
8:55 AM 82.4 °F 88.4 °F 73.9 °F 75% 29.82 in 10.0 mi SSW 5.8 mph - N/A   Scattered Clouds
9:55 AM 85.1 °F 90.4 °F 71.4 °F 63% 29.83 in 10.0 mi South 5.8 mph - N/A   Mostly Cloudy
10:55 AM 85.8 °F 90.8 °F 70.5 °F 60% 29.84 in 10.0 mi SW 8.1 mph - N/A   Mostly Cloudy
11:55 AM 86.9 °F 91.7 °F 70.2 °F 57% 29.83 in 10.0 mi SSW 10.4 mph - N/A   Mostly Cloudy
12:55 PM 88.0 °F 90.0 °F 65.5 °F 47% 29.83 in 10.0 mi WSW 8.1 mph - N/A   Mostly Cloudy
1:55 PM 89.6 °F 90.8 °F 64.0 °F 42% 29.81 in 10.0 mi West 11.5 mph - N/A   Mostly Cloudy
2:56 PM 90.0 °F 90.6 °F 62.6 °F 40% 29.81 in 10.0 mi SW 6.9 mph - N/A   Mostly Cloudy
3:55 PM 90.0 °F 90.0 °F 61.5 °F 38% 29.81 in 10.0 mi WSW 9.2 mph - N/A   Mostly Cloudy
4:55 PM 88.3 °F 92.0 °F 68.0 °F 51% 29.81 in 10.0 mi SSW 11.5 mph - N/A   Mostly Cloudy
5:55 PM 86.4 °F 89.0 °F 67.1 °F 52% 29.82 in 10.0 mi SSW 11.5 mph - N/A   Mostly Cloudy
6:55 PM 84.2 °F 87.3 °F 67.8 °F 58% 29.85 in 10.0 mi South 9.2 mph - N/A   Mostly Cloudy
7:55 PM 81.1 °F 84.0 °F 68.4 °F 65% 29.88 in 10.0 mi South 8.1 mph - N/A   Mostly Cloudy
8:55 PM 78.1 °F - 69.4 °F 75% 29.87 in 10.0 mi South 6.9 mph - N/A   Mostly Cloudy
9:55 PM 78.4 °F - 70.0 °F 75% 29.88 in 10.0 mi South 6.9 mph - N/A   Mostly Cloudy
10:55 PM 75.9 °F - 69.6 °F 81% 29.91 in 10.0 mi South 5.8 mph - N/A   Mostly Cloudy
11:55 PM 75.2 °F - 69.4 °F 82% 29.91 in 10.0 mi SSE 5.8 mph - N/A   Scattered Clouds